When you browse on this site, cookies collect data to enhance your experience and personalize the content and advertising you see.
Visit our Privacy Policy to learn more. By continuing to use the site, you agree to this use of cookies and data.
  • In Schweiz
  • Länderverzeichnis
  • Für 7 Tage
  • Wassertemperatur
  • Wetterkarte
  • Widgets
  • user-avatar
    Anmelden

    Stündliche Wetter Loja

    Heute, 14 Dezember, Samstag

    Zeit Temperatur Niederschläge Wind Luftdruck Luftfeuchtigkeit
    00:00 +9°C° 0 mm 2 m/S 712 mmHg 93%
    01:00 +9°C° 0 mm 2 m/S 712 mmHg 94%
    02:00 +8°C° 0 mm 2 m/S 711 mmHg 94%
    03:00 +8°C° 0 mm 2 m/S 711 mmHg 95%
    04:00 +8°C° 0 mm 2 m/S 711 mmHg 95%
    05:00 +8°C° 0 mm 2 m/S 711 mmHg 95%
    06:00 +8°C° 0 mm 2 m/S 711 mmHg 94%
    07:00 +8°C° 0 mm 2 m/S 711 mmHg 93%
    08:00 +8°C° 0 mm 2 m/S 712 mmHg 92%
    09:00 +9°C° 0 mm 3 m/S 712 mmHg 90%
    10:00 +10°C° 0 mm 3 m/S 712 mmHg 85%
    11:00 +10°C° 0 mm 3 m/S 712 mmHg 79%
    12:00 +12°C° 0 mm 2 m/S 712 mmHg 73%
    13:00 +13°C° 0 mm 2 m/S 711 mmHg 70%
    14:00 +12°C° 0 mm 3 m/S 711 mmHg 68%
    15:00 +13°C° 0 mm 3 m/S 711 mmHg 65%
    16:00 +12°C° 0 mm 2 m/S 711 mmHg 72%
    17:00 +10°C° 0 mm 2 m/S 710 mmHg 79%
    18:00 +8°C° 0 mm 2 m/S 710 mmHg 86%
    19:00 +8°C° 0 mm 2 m/S 711 mmHg 87%
    20:00 +7°C° 0 mm 2 m/S 711 mmHg 89%
    21:00 +7°C° 0 mm 2 m/S 711 mmHg 90%
    22:00 +7°C° 0 mm 2 m/S 711 mmHg 90%
    23:00 +8°C° 0 mm 1 m/S 710 mmHg 90%

    Morgen, 15 Dezember, Sonntag

    Zeit Temperatur Niederschläge Wind Luftdruck Luftfeuchtigkeit
    00:00 +7°C° 0 mm 1 m/S 710 mmHg 90%
    01:00 +7°C° 0 mm 1 m/S 710 mmHg 90%
    02:00 +7°C° 0 mm 1 m/S 710 mmHg 90%
    03:00 +7°C° 0 mm 1 m/S 709 mmHg 90%
    04:00 +7°C° 0 mm 1 m/S 709 mmHg 90%
    05:00 +7°C° 0 mm 1 m/S 709 mmHg 89%
    06:00 +7°C° 0 mm 1 m/S 709 mmHg 89%
    07:00 +8°C° 0 mm 1 m/S 709 mmHg 85%
    08:00 +9°C° 0 mm 1 m/S 709 mmHg 81%
    09:00 +9°C° 0 mm 1 m/S 709 mmHg 77%
    10:00 +11°C° 0 mm 1 m/S 709 mmHg 69%
    11:00 +13°C° 0 mm 1 m/S 709 mmHg 62%
    12:00 +14°C° 0 mm 1 m/S 709 mmHg 54%
    13:00 +15°C° 0 mm 1 m/S 709 mmHg 53%
    14:00 +15°C° 0 mm 1 m/S 708 mmHg 53%
    15:00 +15°C° 0 mm 1 m/S 707 mmHg 52%
    16:00 +14°C° 0 mm 1 m/S 707 mmHg 58%
    17:00 +13°C° 0 mm 1 m/S 706 mmHg 64%
    18:00 +11°C° 0 mm 1 m/S 706 mmHg 70%
    19:00 +11°C° 0 mm 1 m/S 706 mmHg 69%
    20:00 +11°C° 0 mm 1 m/S 706 mmHg 68%
    21:00 +10°C° 0 mm 2 m/S 706 mmHg 67%
    22:00 +9°C° 0 mm 2 m/S 705 mmHg 69%
    23:00 +9°C° 0 mm 2 m/S 705 mmHg 71%

    übermorgen, 16 Dezember, Montag

    Zeit Temperatur Niederschläge Wind Luftdruck Luftfeuchtigkeit
    00:00 +9°C° 0 mm 2 m/S 704 mmHg 73%
    01:00 +9°C° 0 mm 2 m/S 704 mmHg 74%
    02:00 +9°C° 0 mm 3 m/S 703 mmHg 76%
    03:00 +9°C° 0 mm 3 m/S 703 mmHg 78%
    04:00 +9°C° 0 mm 3 m/S 702 mmHg 76%
    05:00 +8°C° 0 mm 4 m/S 701 mmHg 74%
    06:00 +8°C° 0 mm 4 m/S 700 mmHg 72%
    07:00 +10°C° 0 mm 4 m/S 700 mmHg 68%
    08:00 +10°C° 0 mm 5 m/S 700 mmHg 65%
    09:00 +10°C° 0 mm 5 m/S 700 mmHg 62%
    10:00 +11°C° 0.2 mm 7 m/S 700 mmHg 65%
    11:00 +11°C° 0.2 mm 9 m/S 700 mmHg 68%
    12:00 +11°C° 0.2 mm 11 m/S 699 mmHg 71%
    13:00 +10°C° 1 mm 9 m/S 698 mmHg 77%
    14:00 +10°C° 1 mm 7 m/S 698 mmHg 83%
    15:00 +9°C° 1 mm 5 m/S 697 mmHg 89%
    16:00 +8°C° 2 mm 4 m/S 697 mmHg 90%
    17:00 +8°C° 2 mm 4 m/S 698 mmHg 91%
    18:00 +8°C° 2 mm 4 m/S 698 mmHg 92%
    19:00 +8°C° 0.7 mm 4 m/S 698 mmHg 90%
    20:00 +7°C° 0.7 mm 4 m/S 698 mmHg 89%
    21:00 +8°C° 0.7 mm 3 m/S 698 mmHg 87%
    22:00 +7°C° 0.1 mm 3 m/S 698 mmHg 87%
    23:00 +7°C° 0.1 mm 3 m/S 698 mmHg 87%

    17 Dezember, Dienstag

    Zeit Temperatur Niederschläge Wind Luftdruck Luftfeuchtigkeit
    00:00 +7°C° 0.1 mm 2 m/S 698 mmHg 87%
    01:00 +6°C° 0 mm 2 m/S 698 mmHg 88%
    02:00 +5°C° 0 mm 3 m/S 698 mmHg 89%
    03:00 +4°C° 0 mm 3 m/S 698 mmHg 90%
    04:00 +4°C° 0.1 mm 3 m/S 698 mmHg 90%
    05:00 +4°C° 0.1 mm 3 m/S 698 mmHg 90%
    06:00 +4°C° 0.1 mm 3 m/S 698 mmHg 89%
    07:00 +4°C° 0 mm 3 m/S 699 mmHg 88%
    08:00 +4°C° 0 mm 3 m/S 699 mmHg 87%
    09:00 +3°C° 0 mm 3 m/S 700 mmHg 86%
    10:00 +4°C° 0 mm 3 m/S 700 mmHg 83%
    11:00 +4°C° 0 mm 3 m/S 701 mmHg 80%
    12:00 +5°C° 0 mm 4 m/S 701 mmHg 77%
    13:00 +5°C° 0 mm 4 m/S 702 mmHg 77%
    14:00 +5°C° 0 mm 4 m/S 702 mmHg 77%
    15:00 +5°C° 0 mm 5 m/S 702 mmHg 76%
    16:00 +5°C° 0 mm 4 m/S 703 mmHg 78%
    17:00 +5°C° 0 mm 4 m/S 704 mmHg 80%
    18:00 +4°C° 0 mm 4 m/S 705 mmHg 82%
    19:00 +4°C° 0 mm 3 m/S 705 mmHg 82%
    20:00 +4°C° 0 mm 3 m/S 706 mmHg 82%
    21:00 +3°C° 0 mm 3 m/S 707 mmHg 82%
    22:00 +4°C° 0 mm 2 m/S 707 mmHg 84%
    23:00 +3°C° 0 mm 2 m/S 707 mmHg 86%

    18 Dezember, Mittwoch

    Zeit Temperatur Niederschläge Wind Luftdruck Luftfeuchtigkeit
    00:00 +3°C° 0 mm 2 m/S 708 mmHg 88%
    01:00 +2°C° 0 mm 2 m/S 708 mmHg 89%
    02:00 +2°C° 0 mm 2 m/S 708 mmHg 90%
    03:00 +3°C° 0 mm 1 m/S 708 mmHg 91%
    04:00 +3°C° 0 mm 1 m/S 708 mmHg 90%
    05:00 +3°C° 0 mm 1 m/S 708 mmHg 90%
    06:00 +2°C° 0 mm 1 m/S 708 mmHg 89%
    07:00 +3°C° 0 mm 1 m/S 709 mmHg 83%
    08:00 +3°C° 0 mm 2 m/S 709 mmHg 78%
    09:00 +4°C° 0 mm 2 m/S 710 mmHg 72%
    10:00 +7°C° 0 mm 1 m/S 710 mmHg 71%
    11:00 +8°C° 0 mm 1 m/S 710 mmHg 70%
    12:00 +9°C° 0 mm 1 m/S 710 mmHg 68%
    13:00 +9°C° 0 mm 1 m/S 710 mmHg 69%
    14:00 +10°C° 0 mm 1 m/S 709 mmHg 69%
    15:00 +11°C° 0 mm 1 m/S 709 mmHg 70%
    16:00 +10°C° 0.1 mm 1 m/S 709 mmHg 74%
    17:00 +10°C° 0.1 mm 1 m/S 709 mmHg 78%
    18:00 +9°C° 0.1 mm 1 m/S 709 mmHg 82%
    19:00 +8°C° 0.1 mm 2 m/S 709 mmHg 83%
    20:00 +8°C° 0.1 mm 2 m/S 709 mmHg 84%
    21:00 +8°C° 0.1 mm 2 m/S 708 mmHg 85%
    22:00 +8°C° 0 mm 2 m/S 708 mmHg 86%
    23:00 +8°C° 0 mm 2 m/S 708 mmHg 88%

    19 Dezember, Donnerstag

    Zeit Temperatur Niederschläge Wind Luftdruck Luftfeuchtigkeit
    00:00 +8°C° 0 mm 3 m/S 708 mmHg 89%
    01:00 +8°C° 0.2 mm 3 m/S 708 mmHg 89%
    02:00 +8°C° 0.2 mm 3 m/S 707 mmHg 88%
    03:00 +8°C° 0.2 mm 3 m/S 707 mmHg 87%
    04:00 +8°C° 2.5 mm 3 m/S 707 mmHg 90%
    05:00 +8°C° 2.5 mm 3 m/S 707 mmHg 92%
    06:00 +7°C° 2.5 mm 4 m/S 707 mmHg 94%
    07:00 +8°C° 1.8 mm 3 m/S 707 mmHg 94%
    08:00 +9°C° 1.8 mm 3 m/S 707 mmHg 95%
    09:00 +9°C° 1.8 mm 3 m/S 708 mmHg 95%
    10:00 +9°C° 1.1 mm 2 m/S 708 mmHg 94%
    11:00 +10°C° 1.1 mm 2 m/S 708 mmHg 93%
    12:00 +10°C° 1.1 mm 2 m/S 708 mmHg 92%
    13:00 +11°C° 0.2 mm 3 m/S 707 mmHg 91%
    14:00 +11°C° 0.2 mm 3 m/S 707 mmHg 90%
    15:00 +12°C° 0.2 mm 3 m/S 706 mmHg 89%
    16:00 +11°C° 0.1 mm 3 m/S 706 mmHg 91%
    17:00 +11°C° 0.1 mm 3 m/S 706 mmHg 93%
    18:00 +11°C° 0.1 mm 3 m/S 705 mmHg 94%
    19:00 +11°C° 0.2 mm 3 m/S 705 mmHg 95%
    20:00 +11°C° 0.2 mm 4 m/S 705 mmHg 95%
    21:00 +11°C° 0.2 mm 4 m/S 705 mmHg 95%
    22:00 +11°C° 1.1 mm 4 m/S 704 mmHg 95%
    23:00 +10°C° 1.1 mm 5 m/S 703 mmHg 95%
    Mehr zeigen